DECAYED

STARLINK-1354, 45562 (Decayed)

Orbit data source: Space-Track

STARLINK-1354, 45562 was a payload satellite owned by SpaceX/Seattle (US) in LEO that was launched on Wed, 22 Apr 2020 UTC via an FALCON 9 launch vehicle from the Air Force Eastern Test Range (AFETR). Payload-class satellites include a variety of spacecraft equipped with specific instruments for various scientific and technological missions. These include communications satellites like Starlink; space stations such as the ISS; scientific satellites like the Hubble; Earth observation satellites from companies like Planet Labs, Umbra, and HawkEye 360; GPS; miniature CubeSats for education and research; and military/defense satellites.

Not visible in the next 10 days
Identifier
45562, 2020-025AH
Orbit
Decayed
Country
Flag of USUS
Related business
Manufacturer
SpaceX/Seattle
Mission
Decayed Commercial Communications
Bus & Motor
STARLINK, Unknown motor
Mass
260 kg wet, ~248 kg dry
Launch date (UTC)
2020-04-22 (6 years ago)
Launch vehicle
FALCON 9
Launch site
Air Force Eastern Test Range (AFETR)
Object type
Payload
Rocket body
Debris
Shape & HBR
Box + 1 Pan, 10.1 m
Radar Cross Section
13.562 m², Large (>1 m²)

Expand to show TLE details & history
Last TLE update: 1 year ago

TLE from 1 year ago
0 STARLINK-1354
1 45562U 20025AH  24366.96042065  .15502269  12533-4  30349-3 0  9994
2 45562  53.0383 192.3888 0007225 262.2469 252.4285 16.46749353260040
Epoch: 2024-12-31T23:03Z
TLE epoch observation values (Epoch: 2024-12-31T23:03:00.344Z)
Latitude
20.09142°
Longitude
-90.1055°
Altitude
149.825 km
Speed
7.819 km/s
True Right ascension
23h 46m 01s
True Declination
19° 58' 14"
Sunlit
Object was in daylight at epoch
Visualization orbit readout
Latitude
Unknown
Longitude
Unknown
Altitude
Unknown
Speed
Unknown
Apparent Right ascension
Unknown
Apparent Declination
Unknown
Sunlit
N/A
Visualization observer readout
Local Sidereal Time
12:01:37
Azimuth
Unknown
Elevation
Unknown
Doppler factor
Unknown
Orbital elements
Apogee altitude
152.914 km
Perigee altitude
143.484 km
Semi-major axis
6,526.336 km
Eccentricity
0.00072
Inclination
53.0383°
RAAN
192.3888°
Arg. of periapsis
262.2469°
True anomaly
252.34959°
Mean anomaly
252.4285°
Eccentric anomaly
252.38904°
Mean motion
4.1166 °/min
Orbital period
87.45 mins
BSTAR
0.00030349
Loading maneuver chart data...
Computing Atmospheric mass density...
Loading historical data...
Loading historical data...
Loading historical data...
Loading historical data...
Loading historical data...
Loading historical data...
Loading historical data...

Documentation

Showing up to 5 results
|